FW2545 Weather Reports


Display with metric or nautical units.
time (UTC)temp
F
wind
direction
speed
MPH
gust
MPH
rain 1hr
in
rain 24hr
in
rain mn
in
humidity
%
barometer
mb
20260509020036 64 277 11.0 24.0 0.00 0.00 0.00 41 1021.4
20260509014627 65 267 13.0 24.0 0.00 0.00 0.00 39 1021.3
20260509013107 66 266 12.0 25.0 0.00 0.00 0.00 38 1021.1
20260509011530 67 274 11.0 22.0 0.00 0.00 0.00 38 1021.1
20260509010030 68 292 9.0 19.0 0.00 0.00 0.00 38 1021.1
20260509004528 68 320 6.0 16.0 0.00 0.00 0.00 38 1021.1
20260509003110 68 319 6.0 14.0 0.00 0.00 0.00 37 1021.1
20260509001531 68 311 5.0 12.0 0.00 0.00 0.00 37 1021.0
20260509000108 68 320 6.0 15.0 0.00 0.00 0.00 37 1021.0
20260508234530 68 303 7.0 17.0 0.00 0.00 0.00 38 1021.0
20260508233031 68 299 7.0 16.0 0.00 0.00 0.00 38 1021.0
20260508230104 69 301 7.0 16.0 0.00 0.00 0.00 36 1021.1
20260508224646 70 306 8.0 19.0 0.00 0.00 0.00 36 1021.1
20260508223030 70 303 6.0 13.0 0.00 0.00 0.00 36 1021.1
20260508221532 70 304 7.0 15.0 0.00 0.00 0.00 37 1021.3
20260508220030 69 312 8.0 21.0 0.00 0.00 0.00 38 1021.2
20260508213032 68 301 10.0 20.0 0.00 0.00 0.00 39 1021.1
20260508210031 69 311 10.0 22.0 0.00 0.00 0.00 39 1020.9
20260508204530 70 323 8.0 16.0 0.00 0.00 0.00 39 1021.1
20260508203116 70 320 7.0 14.0 0.00 0.00 0.00 39 1021.1
20260508194530 66 329 6.0 12.0 0.00 0.00 0.00 45 1021.3
20260508193032 63 316 4.0 13.0 0.00 0.00 0.00 48 1021.3
20260508191530 62 325 5.0 11.0 0.00 0.00 0.00 49 1021.3
20260508190029 61 321 6.0 13.0 0.00 0.00 0.00 50 1021.3
20260508184530 58 333 6.0 16.0 0.00 0.00 0.00 52 1021.3
20260508183031 58 334 7.0 17.0 0.00 0.00 0.00 52 1021.1
20260508181532 59 326 7.0 16.0 0.00 0.00 0.00 53 1021.2
20260508180031 60 333 7.0 13.0 0.00 0.00 0.00 53 1020.7
20260508174529 61 324 6.0 12.0 0.00 0.00 0.00 55 1020.5
20260508173029 61 325 4.0 10.0 0.00 0.00 0.00 56 1020.5
20260508164645 59 16 2.0 9.0 0.00 0.00 0.00 60 1020.5
20260508163107 58 347 2.0 6.0 0.00 0.00 0.00 61 1020.7
20260508161529 57 346 2.0 6.0 0.00 0.00 0.00 64 1020.8
20260508154531 51 83 1.0 4.0 0.00 0.00 0.00 73 1020.7
20260508153030 48 153 0.0 1.0 0.00 0.00 0.00 74 1020.5
20260508151532 47 157 0.0 1.0 0.00 0.00 0.00 74 1020.3
20260508150030 46 239 0.0 1.0 0.00 0.00 0.00 74 1020.1
20260508144605 45 247 0.0 1.0 0.00 0.00 0.00 75 1019.9
20260508143031 43 198 0.0 3.0 0.00 0.00 0.00 76 1019.7
20260508140105 40 210 1.0 4.0 0.00 0.00 0.00 78 1019.4
20260508134531 39 213 1.0 5.0 0.00 0.00 0.00 78 1019.2
20260508133029 38 212 2.0 5.0 0.00 0.00 0.00 78 1019.0
20260508131531 37 199 2.0 6.0 0.00 0.00 0.00 77 1018.9
20260508130032 38 210 1.0 3.0 0.00 0.00 0.00 77 1018.7
20260508123029 37 226 1.0 4.0 0.00 0.00 0.00 76 1018.6
20260508121606 38 200 0.0 3.0 0.00 0.00 0.00 75 1018.6
20260508120042 38 202 2.0 4.0 0.00 0.00 0.00 75 1018.7
20260508120033 38 239 1.0 4.0 0.00 0.00 0.00 74 1018.6
20260508113030 39 235 2.0 4.0 0.00 0.00 0.00 74 1018.5
20260508111532 38 208 2.0 7.0 0.00 0.00 0.00 74 1018.5
20260508110030 38 224 2.0 4.0 0.00 0.00 0.00 74 1018.4
20260508104602 38 215 2.0 4.0 0.00 0.00 0.00 73 1018.4
20260508103041 38 207 1.0 5.0 0.00 0.00 0.00 72 1018.4
20260508101547 38 202 2.0 4.0 0.00 0.00 0.00 71 1018.5
20260508100031 39 207 2.0 4.0 0.00 0.00 0.00 70 1018.4
20260508094529 39 235 1.0 3.0 0.00 0.00 0.00 69 1018.4
20260508093108 40 218 1.0 3.0 0.00 0.00 0.00 68 1018.4
20260508091530 40 201 2.0 7.0 0.00 0.00 0.00 68 1018.4
20260508084532 40 224 2.0 5.0 0.00 0.00 0.00 68 1018.2
20260508083030 40 202 1.0 6.0 0.00 0.00 0.00 68 1018.3
20260508081530 40 201 1.0 6.0 0.00 0.00 0.00 67 1018.3
20260508080030 41 213 1.0 6.0 0.00 0.00 0.00 65 1018.4
20260508074532 42 215 1.0 4.0 0.00 0.00 0.00 64 1018.2
20260508073032 42 193 3.0 6.0 0.00 0.00 0.00 63 1018.2
20260508071531 42 196 2.0 7.0 0.00 0.00 0.00 62 1018.3
20260508070035 42 266 0.0 3.0 0.00 0.00 0.00 61 1018.3
20260508064538 43 267 0.0 3.0 0.00 0.00 0.00 58 1018.3
20260508063036 44 280 1.0 3.0 0.00 0.00 0.00 57 1018.3
20260508061603 45 274 2.0 4.0 0.00 0.00 0.00 56 1018.3
20260508060030 46 227 1.0 4.0 0.00 0.00 0.00 54 1018.3
20260508054531 47 258 0.0 4.0 0.00 0.00 0.00 50 1018.3
20260508053031 49 292 1.0 4.0 0.00 0.00 0.00 47 1018.3
20260508051529 52 239 1.0 5.0 0.00 0.00 0.00 43 1018.2
20260508050030 55 167 0.0 2.0 0.00 0.00 0.00 37 1018.1
20260508043028 57 344 4.0 8.0 0.00 0.00 0.00 34 1018.0
20260508041526 57 3 4.0 7.0 0.00 0.00 0.00 33 1017.9
20260508040031 59 16 4.0 7.0 0.00 0.00 0.00 31 1017.6
20260508034532 60 341 4.0 8.0 0.00 0.00 0.00 30 1017.4
20260508033030 61 329 3.0 8.0 0.00 0.00 0.00 29 1017.4
20260508030031 63 330 5.0 11.0 0.00 0.00 0.00 28 1017.1
20260508024530 64 334 5.0 12.0 0.00 0.00 0.00 27 1017.1
20260508023029 65 339 5.0 11.0 0.00 0.00 0.00 27 1017.1